Regional Weather Roundup
Issued by NWS Cleveland, OH

Home | Current Version | Previous Version | Graphics & Text | Print | Product List | Glossary On
Versions: 1 2 3 4 5 6 7 8 9 10 11 12 13 14 15 16 17 18 19 20 21 22 23 24 25 26 27 28 29 30 31 32 33 34 35 36 37 38 39 40 41 42 43 44 45 46 47 48 49 50
560
ASUS41 KCLE 281212
RWRCLE
OHIO REGIONAL WEATHER ROUNDUP
NATIONAL WEATHER SERVICE WILMINGTON, OH
800 AM EDT WED SEP 28 2016

NOTE: "FAIR" INDICATES FEW OR NO CLOUDS BELOW 12,000 FEET WITH NO
SIGNIFICANT WEATHER AND/OR OBSTRUCTIONS TO VISIBILITY.

OHZ001>008-015>018-024>027-034-035-043-044-281300-
   NORTHWEST OHIO

CITY           SKY/WX    TMP DP  RH WIND       PRES   REMARKS
DEFIANCE       FAIR      54  48  80 CALM      29.80R
FINDLAY        HVY RAIN  55  50  83 SW6       29.87R
TOLEDO EXPRESS CLOUDY    51  49  92 E3        29.82R
TOLEDO EXEC    CLOUDY    59  48  67 SE18G26   29.83R
LIMA           RAIN      53  53 100 E8        29.84S FOG
$$

OHZ009>014-019>023-028>033-038-089-281300-
   NORTHEAST OHIO

CITY           SKY/WX    TMP DP  RH WIND       PRES   REMARKS
CLE-HOPKINS    MOCLDY    57  44  62 S6        29.89R
CLE-LAKEFRONT  FAIR      61  43  51 SE10      29.85R
CUY CO. ARPT   PTCLDY    59  46  63 S13       29.88R
LORAIN-ELYRIA  CLOUDY    55  44  66 S7        29.86R
ASHTABULA      FAIR      54  47  77 SE8       29.93R
AKRON-CANTON   FAIR      55  42  61 SE12      29.89S
WOOSTER        MOCLDY    51  45  79 SE6       29.89R
MANSFIELD      CLOUDY    56  45  66 S7        29.87R
YOUNGSTOWN     MOCLDY    53  43  68 SE10      29.93R
$$

OHZ042-051>053-060>062-070>072-077>081-281300-
  SOUTHWEST OHIO

CITY           SKY/WX    TMP DP  RH WIND       PRES   REMARKS
CINC-COVINGTON MOCLDY    57  48  72 S13       29.80F
CINC-LUNKEN    MOCLDY    57  49  74 S10       29.82F
HAMILTON       CLOUDY    57  51  80 NE5       29.82S
DAYTON         LGT RAIN  55  53  93 E5        29.84F
WRIGHT-PAT AFB LGT RAIN  56  55  95 E5        29.84F
DAYTON GENERAL CLOUDY    57  48  72 E3        29.83R
WILMINGTON     FAIR      57  46  66 S12       29.83S
$$

OHZ036-037-039>041-045>050-054>059-063>069-073>076-082>088-281300-
  CENTRAL AND SOUTHEAST OHIO

CITY           SKY/WX    TMP DP  RH WIND       PRES   REMARKS
COLUMBUS       MOCLDY    58  47  66 SE7       29.84R
OSU AIRPORT    CLOUDY    57  46  66 VRB3      29.84R
BOLTON FIELD   MOCLDY    52  46  82 SE7       29.84F
RICKENBACK AFB FAIR      57  45  64 S9        29.84S
NEWARK         FAIR      50  47  89 CALM      29.87R
MARION         NOT AVBL
LANCASTER      FAIR      53  46  77 SE9       29.87R
ZANESVILLE     FAIR      52  44  74 SE6       29.90R
NEW PHILLY     FAIR      51  47  86 SE5       29.91S
$$




USA.gov is the U.S. government's official web portal to all federal, state and local government web resources and services.